Location: Malanoce
(44.2500°N, 7.4667°E)
Time: 22:19:45
(UTC+00:00)

Cosmos 1869 - Pass Details

Date: 17 November 2025
Orbit: 453 x 481 km, 82.5° (Epoch: 09 December)

Event Time Altitude Azimuth Distance (km) Brightness Sun altitude
Rises 17:10:18 0° 189° (S) 2,489 7.0 -12.4°
Reaches altitude 10° 17:12:23 10° 190° (S) 1,613 6.0 -12.8°
Maximum altitude 17:15:54 82° 278° (W) 473 3.0 -13.4°
Drops below altitude 10° 17:19:25 10° 7° (N) 1,612 5.5 -14.0°
Sets 17:21:30 0° 8° (N) 2,487 6.5 -14.3°
Enters shadow 17:21:32 - 8° (N) 2,501 6.5 -14.3°
